Precipitable_Water
1.29 1.37 1.29 1.22 1.23 1.27 1.33 1.35 1.44 1.47 1.56 1.72 1.66 1.61 1.57 1.56 1.63 1.62 1.62 1.60 1.54 1.50 1.47 1.49 1.45 1.30 1.20 1.16 1.10 1.03 0.99 0.99 1.00 1.04 1.07 1.08 0.98 0.97 0.90 0.88 0.87 1.04 0.98
1.38 1.36 1.30 1.25 1.22 1.22 1.28 1.32 1.42 1.48 1.51 1.58 1.70 1.72 1.69 1.74 1.76 1.65 1.64 1.67 1.60 1.59 1.62 1.55 1.48 1.38 1.32 1.22 1.19 1.11 1.04 1.01 1.02 1.01 1.04 1.03 1.02 0.98 0.91 0.88 0.90 1.09 0.94
1.30 1.34 1.28 1.15 1.08 1.07 1.15 1.24 1.34 1.39 1.43 1.49 1.66 1.69 1.63 1.66 1.76 1.87 1.69 1.70 1.68 1.67 1.67 1.52 1.50 1.52 1.48 1.33 1.24 1.17 1.10 1.04 1.06 1.01 1.01 1.11 1.11 0.97 0.98 0.91 0.93 0.93 0.97
1.31 1.32 1.28 1.16 1.09 1.03 0.95 0.98 1.12 1.24 1.30 1.14 1.46 1.68 1.71 1.72 1.53 1.42 1.85 1.68 1.74 1.70 1.68 1.53 1.46 1.53 1.53 1.38 1.29 1.20 1.16 1.10 1.10 1.08 1.01 1.07 1.09 1.04 1.04 1.01 1.04 1.02 0.96
1.32 1.33 1.26 1.24 1.16 1.09 1.01 0.97 0.98 1.01 1.06 1.13 1.28 1.48 1.62 1.64 1.72 1.59 1.69 1.68 1.76 1.68 1.67 1.64 1.66 1.61 1.44 1.36 1.31 1.18 1.18 1.24 1.15 1.07 1.09 1.05 1.10 1.20 1.10 1.06 1.15 1.22 1.18
1.35 1.37 1.32 1.26 1.21 1.15 1.06 1.00 1.02 1.05 1.02 1.05 1.06 1.17 1.39 1.54 1.62 1.70 1.77 1.70 1.72 1.67 1.61 1.66 1.60 1.51 1.44 1.30 1.24 1.18 1.15 1.16 1.13 1.08 1.04 1.07 1.10 1.26 1.19 1.09 1.31 1.30 1.21
1.29 1.34 1.33 1.27 1.24 1.18 1.09 1.01 1.04 1.05 1.04 1.05 1.10 1.06 1.01 1.13 1.19 1.35 1.68 1.71 1.67 1.64 1.59 1.58 1.41 1.42 1.32 1.34 1.16 1.19 1.20 1.15 1.11 1.08 1.13 1.15 1.15 1.26 1.27 1.12 1.22 1.17 1.09
1.16 1.22 1.26 1.24 1.18 1.10 1.07 1.07 1.04 1.03 1.09 1.11 1.14 1.10 1.08 1.10 1.14 1.19 1.15 1.22 1.28 1.27 1.27 1.23 1.26 1.35 1.11 1.20 1.25 1.26 1.25 1.17 1.13 1.13 1.17 1.21 1.30 1.26 1.33 1.21 1.07 1.05 1.01
1.03 1.06 1.08 1.10 1.07 1.05 1.04 1.06 1.05 1.03 1.03 1.04 1.14 1.20 1.19 1.14 1.15 1.08 0.97 0.97 1.03 1.12 1.25 1.28 1.21 1.25 1.19 1.17 1.28 1.33 1.37 1.35 1.32 1.29 1.26 1.23 1.28 1.23 1.35 1.41 1.15 1.02 0.98
1.00 0.98 0.96 1.01 1.03 1.05 1.06 1.01 1.00 1.02 1.04 1.03 1.07 1.11 1.17 1.28 1.33 1.30 1.33 1.27 1.21 1.22 1.27 1.31 1.28 1.25 1.27 1.23 1.34 1.38 1.43 1.43 1.39 1.35 1.33 1.31 1.28 1.19 1.30 1.43 1.29 1.07 1.01
0.78 0.81 0.92 0.97 0.99 1.00 1.00 0.96 1.01 1.00 1.00 1.02 1.07 1.09 1.12 1.19 1.33 1.47 1.43 1.46 1.46 1.40 1.35 1.32 1.32 1.30 1.27 1.22 1.25 1.23 1.27 1.36 1.45 1.40 1.37 1.33 1.26 1.20 1.26 1.34 1.37 1.13 1.01
0.56 0.62 0.75 0.90 0.96 1.00 0.95 0.91 1.07 1.12 1.12 1.11 1.12 1.13 1.10 1.13 1.17 1.30 1.42 1.48 1.47 1.43 1.45 1.54 1.46 1.39 1.30 1.26 1.21 1.12 1.19 1.22 1.31 1.33 1.33 1.34 1.28 1.24 1.20 1.38 1.22 1.19 1.01
0.56 0.59 0.65 0.78 0.93 1.03 0.99 1.05 1.08 1.10 1.11 1.10 1.10 1.07 1.08 1.06 1.11 1.21 1.23 1.24 1.34 1.35 1.38 1.35 1.58 1.52 1.45 1.39 1.28 1.24 1.26 1.34 1.36 1.37 1.28 1.36 1.29 1.27 1.23 1.17 1.21 1.19 1.03
0.60 0.64 0.68 0.77 0.84 0.89 0.91 0.92 0.94 0.92 0.90 0.90 0.99 1.06 1.06 1.07 1.07 1.05 1.05 1.16 1.27 1.32 1.27 1.25 1.29 1.29 1.39 1.42 1.35 1.31 1.34 1.39 1.37 1.38 1.35 1.33 1.30 1.19 1.24 1.17 1.24 1.13 1.05
0.54 0.56 0.56 0.62 0.65 0.72 0.74 0.72 0.71 0.70 0.68 0.66 0.65 0.68 0.72 0.71 0.68 0.73 0.70 0.70 0.84 1.04 1.15 1.14 1.14 1.25 1.31 1.27 1.28 1.27 1.28 1.27 1.27 1.30 1.34 1.35 1.27 1.14 1.19 1.20 1.19 1.17 1.05
0.42 0.42 0.47 0.50 0.56 0.57 0.59 0.55 0.50 0.47 0.46 0.46 0.47 0.48 0.54 0.59 0.60 0.67 0.66 0.72 0.85 0.91 0.95 1.00 1.07 1.09 1.14 1.26 1.26 1.27 1.28 1.28 1.24 1.24 1.27 1.34 1.32 1.17 1.04 1.17 1.20 1.25 1.18
0.35 0.38 0.39 0.39 0.41 0.40 0.41 0.40 0.38 0.37 0.39 0.41 0.45 0.51 0.52 0.56 0.57 0.55 0.54 0.55 0.60 0.74 0.83 0.92 0.95 1.07 1.04 1.13 1.07 1.14 1.15 1.16 1.20 1.18 1.21 1.20 1.24 1.26 1.03 0.99 1.12 1.21 1.30
0.36 0.37 0.36 0.34 0.38 0.38 0.38 0.37 0.36 0.38 0.38 0.43 0.49 0.51 0.50 0.49 0.50 0.53 0.52 0.51 0.53 0.57 0.61 0.69 0.74 0.80 0.91 1.10 1.00 1.02 0.99 1.06 1.08 1.12 1.13 1.19 1.23 1.19 1.10 0.92 0.94 1.08 1.27
0.38 0.37 0.37 0.37 0.37 0.37 0.38 0.40 0.41 0.42 0.41 0.43 0.46 0.47 0.47 0.45 0.44 0.44 0.47 0.48 0.44 0.42 0.43 0.46 0.55 0.65 0.65 0.70 0.83 0.92 0.97 0.94 1.01 1.07 1.04 1.07 1.20 1.27 1.24 1.07 0.92 0.88 1.15
0.42 0.41 0.42 0.41 0.42 0.42 0.42 0.43 0.45 0.46 0.47 0.47 0.46 0.46 0.46 0.46 0.45 0.43 0.44 0.46 0.43 0.39 0.36 0.34 0.33 0.40 0.48 0.59 0.57 0.67 0.84 0.93 1.02 1.02 0.98 1.04 1.13 1.22 1.29 1.28 1.02 0.89 0.96
0.46 0.44 0.44 0.44 0.45 0.45 0.45 0.45 0.45 0.44 0.46 0.49 0.49 0.48 0.50 0.47 0.47 0.46 0.44 0.44 0.43 0.41 0.41 0.39 0.35 0.33 0.31 0.39 0.37 0.50 0.59 0.78 0.89 0.94 0.93 1.01 1.04 1.11 1.23 1.27 1.20 0.99 0.96
0.45 0.45 0.44 0.45 0.46 0.46 0.46 0.47 0.46 0.45 0.46 0.47 0.49 0.53 0.54 0.53 0.51 0.49 0.47 0.45 0.45 0.40 0.39 0.40 0.39 0.35 0.33 0.36 0.30 0.29 0.37 0.57 0.75 0.84 0.87 0.92 0.93 1.03 1.12 1.22 1.24 1.06 0.97
0.45 0.46 0.46 0.46 0.46 0.47 0.47 0.47 0.47 0.47 0.46 0.46 0.48 0.50 0.55 0.57 0.57 0.55 0.52 0.49 0.46 0.47 0.43 0.40 0.39 0.37 0.33 0.33 0.37 0.35 0.26 0.32 0.46 0.66 0.78 0.87 0.93 0.94 1.02 1.09 1.23 1.13 0.98
0.50 0.52 0.51 0.49 0.49 0.50 0.52 0.48 0.45 0.42 0.41 0.44 0.46 0.50 0.55 0.58 0.55 0.53 0.52 0.52 0.52 0.49 0.46 0.44 0.41 0.39 0.38 0.34 0.33 0.34 0.42 0.32 0.24 0.24 0.50 0.70 0.83 0.92 0.95 1.02 1.11 1.18 1.12
0.52 0.53 0.53 0.51 0.51 0.51 0.50 0.49 0.48 0.47 0.50 0.52 0.52 0.52 0.53 0.54 0.52 0.50 0.50 0.53 0.53 0.53 0.50 0.49 0.47 0.42 0.41 0.38 0.36 0.33 0.32 0.33 0.31 0.30 0.21 0.32 0.65 0.78 0.92 1.00 1.05 1.15 1.20
0.52 0.54 0.55 0.53 0.51 0.52 0.51 0.51 0.50 0.50 0.53 0.52 0.51 0.49 0.48 0.49 0.48 0.49 0.49 0.49 0.48 0.48 0.48 0.48 0.48 0.48 0.46 0.43 0.41 0.38 0.34 0.30 0.28 0.26 0.31 0.30 0.27 0.45 0.69 0.87 0.98 1.04 1.14
Wind_Speed
7 7 7 6 6 6 7 8 9 11 14 16 17 17 18 17 18 17 17 15 14 13 13 13 13 12 12 11 11 11 11 11 11 11 10 10 9 9 9 9 9 9 9
8 7 7 9 9 8 8 8 9 10 12 14 17 18 19 19 19 20 19 17 15 15 13 13 13 13 12 12 12 12 12 13 13 12 12 11 10 10 10 10 10 11 10
7 8 8 8 8 10 12 12 11 11 11 13 16 18 20 22 21 18 20 19 17 15 14 13 13 14 14 13 13 13 13 14 14 14 14 12 12 11 12 11 11 11 12
7 8 9 9 10 10 11 11 12 14 15 16 15 18 21 20 27 28 20 18 17 16 15 15 15 16 15 14 15 16 16 15 15 15 15 15 14 14 14 13 12 12 12
7 7 8 11 12 11 12 13 15 16 18 18 19 20 21 22 23 22 19 16 17 17 16 16 17 17 17 17 17 18 18 18 17 17 17 16 16 16 16 15 15 14 13
8 9 10 10 11 11 13 14 15 16 17 19 20 20 22 22 21 23 22 22 20 20 19 18 18 17 18 19 19 19 19 19 19 19 19 19 19 18 18 18 18 16 15
8 9 10 11 12 12 13 15 16 17 18 19 20 21 22 23 23 24 24 23 22 22 21 21 20 20 20 20 19 21 21 20 21 21 21 21 21 20 20 20 19 19 18
9 10 11 11 12 13 14 16 17 18 20 21 21 23 24 24 24 24 24 24 24 24 23 23 23 22 21 21 21 22 23 22 22 22 22 22 23 22 22 22 22 22 21
10 11 11 12 14 15 16 16 18 19 19 21 23 24 25 26 27 27 26 26 26 25 25 26 26 25 25 23 22 22 24 25 24 23 23 23 24 25 24 24 24 24 23
11 11 13 14 15 16 17 18 18 19 20 21 22 23 25 26 28 29 28 29 29 29 29 29 29 29 29 28 26 25 26 26 27 27 26 26 25 26 27 26 26 26 26
12 14 15 16 17 18 18 18 19 19 19 20 20 21 23 24 26 27 29 30 30 31 31 33 32 32 32 32 31 28 28 28 28 29 28 27 28 28 28 28 28 28 28
13 14 16 18 19 19 19 18 18 17 17 18 19 20 22 23 25 29 32 33 31 33 33 33 34 33 33 32 32 31 31 32 31 33 32 30 30 31 31 30 30 30 29
14 16 17 17 17 17 16 17 17 17 18 18 19 21 21 22 24 27 30 36 45 37 23 28 31 34 35 35 35 35 34 36 36 37 41 34 32 33 33 33 32 32 31
15 15 15 15 13 12 12 12 12 13 13 14 14 15 17 18 20 20 22 22 25 34 33 29 21 20 35 33 33 33 32 34 32 35 34 37 35 35 36 35 34 34 34
11 10 9 7 7 7 8 9 10 10 11 12 13 15 16 16 17 18 19 19 20 23 33 35 32 34 31 26 32 35 35 34 36 32 34 38 38 38 38 38 37 36 36
7 7 7 7 7 8 9 9 11 12 13 14 15 16 17 18 18 18 19 20 20 19 21 25 27 26 31 36 34 33 35 36 37 37 37 37 40 40 41 42 40 39 38
8 9 10 10 10 11 12 13 14 15 16 16 17 17 18 19 20 20 21 21 22 21 22 23 26 26 25 26 29 32 37 37 37 38 39 41 41 44 44 45 44 42 41
11 12 13 13 13 14 15 16 17 17 18 18 19 20 20 21 21 22 23 24 24 24 23 23 23 24 25 26 28 30 32 34 35 38 39 40 41 37 42 44 46 45 44
16 16 17 17 17 18 18 19 20 20 21 21 22 22 23 23 24 25 25 25 26 26 26 26 26 26 27 28 29 32 32 34 36 37 38 39 41 41 44 45 46 48 47
18 19 20 20 21 21 22 23 23 24 24 25 25 25 26 26 27 27 28 27 27 27 27 27 28 29 30 30 32 33 33 35 35 35 37 37 39 40 44 46 46 48 50
21 21 22 22 23 24 25 25 26 26 27 27 28 28 29 29 30 31 31 31 30 30 29 29 29 30 31 32 33 34 35 36 38 38 38 38 39 40 42 44 50 49 49
24 24 24 25 25 26 27 28 28 29 29 30 31 32 33 33 34 35 35 35 34 34 33 33 32 32 32 32 33 35 35 36 37 38 40 40 40 40 41 45 43 49 49
24 24 25 26 27 28 29 29 30 31 32 33 34 35 36 38 39 39 39 38 37 37 36 36 36 36 36 35 34 35 35 35 38 38 38 41 42 42 43 44 46 47 50
25 26 27 28 29 30 31 31 32 33 34 35 37 38 39 41 41 41 41 40 39 39 39 39 38 39 39 39 38 38 39 40 39 41 41 39 40 44 44 45 47 51 51
24 26 27 29 31 32 33 34 34 36 37 38 40 41 41 41 42 42 42 42 41 41 41 41 42 41 41 42 42 42 43 43 44 45 46 45 45 43 43 46 47 50 52
25 27 29 32 33 34 34 35 37 39 40 40 40 40 40 41 41 42 42 43 43 43 43 44 44 44 44 45 45 46 46 46 46 46 48 48 49 49 48 47 48 51 53
Wind_Direction
262 246 243 252 260 257 253 254 251 246 241 236 233 234 232 230 230 228 226 224 222 218 216 215 215 219 220 221 221 221 217 214 213 212 208 208 209 210 207 205 201 203 200
248 242 247 259 253 261 257 253 257 250 243 243 241 237 237 235 235 232 227 223 223 221 218 218 220 220 221 221 223 221 220 218 217 217 214 216 219 219 214 213 214 212 211
246 252 256 262 261 259 258 263 261 252 251 250 248 243 243 243 238 240 227 225 223 223 222 223 226 227 227 228 230 226 224 223 224 223 223 224 225 224 221 219 220 219 217
254 257 258 260 267 265 262 260 262 255 259 257 259 258 254 255 256 272 233 227 230 228 232 233 233 234 233 235 239 232 228 227 228 228 229 230 231 229 227 225 224 221 220
263 262 266 267 273 267 264 270 268 263 265 266 265 266 264 263 262 256 254 247 241 239 242 243 239 240 244 245 243 235 233 232 232 234 234 234 234 232 231 229 229 225 222
266 269 275 269 274 271 270 272 271 270 270 268 269 263 265 264 262 257 257 250 250 254 255 252 250 248 248 248 242 236 235 235 236 237 238 237 236 234 234 232 234 227 227
273 274 276 277 275 274 276 278 276 274 273 272 270 267 267 266 263 258 257 261 257 257 256 252 248 249 253 246 242 237 236 238 241 240 241 240 238 236 235 233 230 231 234
282 281 278 276 277 280 284 284 280 277 275 275 274 271 270 266 266 262 258 258 258 257 255 252 247 251 250 244 244 241 241 241 242 244 243 241 239 238 237 236 235 236 236
285 281 278 279 281 283 286 286 285 281 278 277 276 273 271 268 265 264 262 261 259 255 253 251 249 250 248 245 245 245 244 243 245 245 245 244 241 239 238 236 236 236 236
280 280 282 283 284 286 287 288 288 285 281 279 277 276 273 271 268 263 262 260 258 256 254 253 251 250 248 244 246 248 246 246 248 247 247 246 244 241 239 239 238 236 235
279 283 285 285 287 287 288 288 288 286 284 281 280 280 278 274 270 265 262 261 260 257 255 252 251 249 248 248 248 248 248 247 248 247 248 248 246 243 241 240 238 237 236
285 288 289 289 288 286 286 286 287 286 285 286 284 283 284 280 276 266 265 261 259 258 260 254 251 248 248 247 248 249 249 250 251 250 249 248 246 243 242 241 240 238 237
287 290 292 291 290 288 288 287 286 286 288 290 289 287 286 285 283 280 281 270 255 251 259 258 252 248 248 249 250 252 252 254 256 250 250 245 247 244 242 242 240 238 237
290 294 293 293 291 289 291 295 295 294 296 298 302 302 298 291 291 289 292 285 270 252 254 255 252 256 249 247 249 252 253 252 256 256 250 246 247 244 243 242 240 238 238
295 297 301 305 306 303 302 303 305 304 305 305 307 308 306 305 302 298 297 296 294 271 254 260 271 256 258 251 254 254 253 255 255 256 253 245 247 246 243 241 240 239 236
309 313 313 311 305 304 304 303 304 305 305 305 307 308 308 305 303 303 303 302 300 286 277 264 270 268 263 256 259 255 256 257 256 257 257 255 251 246 244 241 239 238 236
298 299 301 299 294 294 294 296 298 300 302 303 304 305 307 306 305 304 303 302 301 297 288 281 275 269 265 263 264 258 258 259 257 258 257 257 256 250 245 241 239 238 236
289 289 290 290 290 289 290 292 293 294 296 297 299 301 301 302 303 304 303 300 298 296 294 288 285 276 274 268 267 265 261 262 260 259 259 257 254 252 242 240 237 236 236
284 285 285 286 286 287 288 289 290 291 292 293 295 296 298 299 300 301 301 299 297 294 292 290 287 283 278 274 272 268 265 264 264 262 261 258 254 250 242 242 239 236 235
284 283 282 282 283 283 285 286 286 287 289 290 291 292 294 295 297 299 298 298 297 294 291 289 287 284 281 279 277 274 269 265 265 263 262 259 256 252 247 239 238 237 234
283 283 283 282 282 282 282 283 283 284 284 286 287 290 291 293 294 296 296 295 294 292 291 289 288 285 282 281 279 276 274 269 264 263 263 261 258 255 247 244 240 237 235
283 283 283 283 283 284 284 284 284 284 285 286 287 288 289 291 292 293 293 293 290 289 287 287 286 285 284 283 280 279 275 271 267 264 262 261 259 254 250 245 242 235 234
284 283 282 282 283 283 283 283 283 283 285 286 287 288 289 290 290 290 290 289 288 286 286 285 284 283 283 283 281 279 276 272 273 267 265 261 259 255 252 247 241 236 234
286 284 283 283 283 283 282 281 280 282 284 286 287 288 290 290 289 289 288 287 286 285 284 284 283 282 282 281 280 279 274 274 271 269 264 263 260 256 251 248 243 239 236
290 287 285 285 285 283 282 281 281 281 283 285 287 288 289 290 289 288 288 287 285 284 282 282 281 280 279 279 278 278 276 274 271 269 267 263 259 257 252 248 245 241 238
294 291 289 288 287 285 285 283 282 283 284 285 286 287 288 291 291 290 288 286 285 284 283 282 280 279 278 277 277 276 275 273 272 270 267 263 260 256 252 250 245 242 239